Meteo pe oră la Alkaladka

Astăzi, 28 Ianuarie, Joi

Timp Temperatura Precipitaţii Vânt Presiune Umiditate
00:00 -2°C° 0 mm 6 m/s 747 mmHg 93%
01:00 -3°C° 0 mm 6 m/s 747 mmHg 92%
02:00 -4°C° 0 mm 6 m/s 747 mmHg 92%
03:00 -5°C° 0 mm 6 m/s 746 mmHg 91%
04:00 -5°C° 0 mm 6 m/s 746 mmHg 92%
05:00 -5°C° 0 mm 6 m/s 746 mmHg 92%
06:00 -5°C° 0 mm 5 m/s 746 mmHg 93%
07:00 -5°C° 0 mm 6 m/s 746 mmHg 93%
08:00 -5°C° 0 mm 6 m/s 746 mmHg 92%
09:00 -5°C° 0 mm 6 m/s 746 mmHg 92%
10:00 -5°C° 0 mm 6 m/s 746 mmHg 92%
11:00 -5°C° 0 mm 6 m/s 745 mmHg 92%
12:00 -5°C° 0 mm 5 m/s 745 mmHg 93%
13:00 -5°C° 0 mm 5 m/s 745 mmHg 93%
14:00 -5°C° 0 mm 6 m/s 745 mmHg 93%
15:00 -4°C° 0 mm 6 m/s 745 mmHg 93%
16:00 -5°C° 0 mm 6 m/s 745 mmHg 93%
17:00 -5°C° 0 mm 5 m/s 745 mmHg 93%
18:00 -5°C° 0 mm 5 m/s 745 mmHg 93%
19:00 -5°C° 0 mm 5 m/s 745 mmHg 93%
20:00 -5°C° 0 mm 5 m/s 745 mmHg 94%
21:00 -4°C° 0 mm 4 m/s 744 mmHg 94%
22:00 -4°C° 0 mm 4 m/s 744 mmHg 94%
23:00 -4°C° 0 mm 4 m/s 744 mmHg 95%

Mâine, 29 Ianuarie, Vineri

Timp Temperatura Precipitaţii Vânt Presiune Umiditate
00:00 -4°C° 0 mm 4 m/s 743 mmHg 95%
01:00 -4°C° 0.2 mm 4 m/s 743 mmHg 95%
02:00 -4°C° 0.2 mm 4 m/s 743 mmHg 95%
03:00 -4°C° 0.2 mm 4 m/s 743 mmHg 96%
04:00 -3°C° 0.1 mm 4 m/s 743 mmHg 96%
05:00 -3°C° 0.1 mm 4 m/s 743 mmHg 96%
06:00 -3°C° 0.1 mm 4 m/s 742 mmHg 96%
07:00 -3°C° 0 mm 4 m/s 742 mmHg 96%
08:00 -3°C° 0 mm 4 m/s 743 mmHg 95%
09:00 -3°C° 0 mm 4 m/s 743 mmHg 94%
10:00 -2°C° 0 mm 4 m/s 742 mmHg 92%
11:00 -2°C° 0 mm 5 m/s 742 mmHg 89%
12:00 -2°C° 0 mm 5 m/s 742 mmHg 87%
13:00 -2°C° 0 mm 5 m/s 742 mmHg 87%
14:00 -2°C° 0 mm 5 m/s 741 mmHg 87%
15:00 -2°C° 0 mm 5 m/s 741 mmHg 87%
16:00 -2°C° 0 mm 5 m/s 741 mmHg 88%
17:00 -4°C° 0 mm 5 m/s 741 mmHg 88%
18:00 -4°C° 0 mm 6 m/s 741 mmHg 89%
19:00 -4°C° 0 mm 6 m/s 740 mmHg 89%
20:00 -3°C° 0 mm 6 m/s 740 mmHg 90%
21:00 -3°C° 0 mm 6 m/s 740 mmHg 90%
22:00 -4°C° 0 mm 6 m/s 740 mmHg 90%
23:00 -4°C° 0 mm 6 m/s 740 mmHg 90%

Poimâine, 30 Ianuarie, Sâmbătă

Timp Temperatura Precipitaţii Vânt Presiune Umiditate
00:00 -4°C° 0 mm 6 m/s 740 mmHg 90%
01:00 -4°C° 0.1 mm 6 m/s 739 mmHg 91%
02:00 -4°C° 0.1 mm 7 m/s 739 mmHg 93%
03:00 -4°C° 0.1 mm 7 m/s 739 mmHg 94%
04:00 -4°C° 0.5 mm 7 m/s 738 mmHg 95%
05:00 -4°C° 0.5 mm 7 m/s 738 mmHg 95%
06:00 -4°C° 0.5 mm 8 m/s 737 mmHg 96%
07:00 -4°C° 0.3 mm 7 m/s 737 mmHg 94%
08:00 -4°C° 0.3 mm 6 m/s 737 mmHg 92%
09:00 -4°C° 0.3 mm 5 m/s 737 mmHg 90%
10:00 -4°C° 0 mm 5 m/s 738 mmHg 89%
11:00 -5°C° 0 mm 5 m/s 739 mmHg 88%
12:00 -5°C° 0 mm 5 m/s 740 mmHg 87%
13:00 -4°C° 0 mm 4 m/s 740 mmHg 88%
14:00 -4°C° 0 mm 4 m/s 741 mmHg 89%
15:00 -4°C° 0 mm 3 m/s 741 mmHg 89%
16:00 -5°C° 0 mm 3 m/s 741 mmHg 90%
17:00 -5°C° 0 mm 3 m/s 741 mmHg 91%
18:00 -5°C° 0 mm 3 m/s 741 mmHg 92%
19:00 -5°C° 0 mm 4 m/s 741 mmHg 92%
20:00 -4°C° 0 mm 4 m/s 741 mmHg 93%
21:00 -4°C° 0 mm 4 m/s 741 mmHg 93%
22:00 -4°C° 0.4 mm 5 m/s 741 mmHg 95%
23:00 -2°C° 0.4 mm 6 m/s 740 mmHg 97%

31 Ianuarie, Duminică

Timp Temperatura Precipitaţii Vânt Presiune Umiditate
00:00 -1°C° 0.4 mm 7 m/s 740 mmHg 98%
01:00 -1°C° 0.1 mm 8 m/s 740 mmHg 95%
02:00 -1°C° 0.1 mm 8 m/s 740 mmHg 91%
03:00 -1°C° 0.1 mm 8 m/s 739 mmHg 88%
04:00 -2°C° 0 mm 8 m/s 739 mmHg 86%
05:00 -2°C° 0 mm 8 m/s 738 mmHg 84%
06:00 -2°C° 0 mm 8 m/s 738 mmHg 82%
07:00 -3°C° 0 mm 9 m/s 737 mmHg 82%
08:00 -3°C° 0 mm 9 m/s 737 mmHg 82%
09:00 -3°C° 0 mm 10 m/s 736 mmHg 82%
10:00 -3°C° 0.6 mm 11 m/s 735 mmHg 87%
11:00 -4°C° 0.6 mm 11 m/s 735 mmHg 91%
12:00 -5°C° 0.6 mm 12 m/s 734 mmHg 96%
13:00 -3°C° 0.8 mm 12 m/s 733 mmHg 97%
14:00 -2°C° 0.8 mm 11 m/s 732 mmHg 97%
15:00 -1°C° 0.8 mm 11 m/s 732 mmHg 98%
16:00 -3°C° 0.1 mm 11 m/s 732 mmHg 93%
17:00 -4°C° 0.1 mm 11 m/s 733 mmHg 87%
18:00 -6°C° 0.1 mm 12 m/s 734 mmHg 82%
19:00 -7°C° 0.1 mm 11 m/s 736 mmHg 84%
20:00 -7°C° 0.1 mm 11 m/s 737 mmHg 85%
21:00 -8°C° 0.1 mm 11 m/s 739 mmHg 87%
22:00 -8°C° 0 mm 10 m/s 740 mmHg 86%
23:00 -9°C° 0 mm 9 m/s 741 mmHg 85%

1 Februarie, Luni

Timp Temperatura Precipitaţii Vânt Presiune Umiditate
00:00 -8°C° 0 mm 8 m/s 742 mmHg 84%
01:00 -8°C° 0 mm 7 m/s 743 mmHg 85%
02:00 -9°C° 0 mm 6 m/s 744 mmHg 86%
03:00 -9°C° 0 mm 6 m/s 745 mmHg 87%
04:00 -8°C° 0 mm 5 m/s 746 mmHg 88%
05:00 -8°C° 0 mm 5 m/s 746 mmHg 89%
06:00 -8°C° 0 mm 5 m/s 747 mmHg 89%
07:00 -8°C° 0 mm 5 m/s 748 mmHg 90%
08:00 -8°C° 0 mm 4 m/s 748 mmHg 90%
09:00 -9°C° 0 mm 4 m/s 749 mmHg 90%
10:00 -8°C° 0 mm 4 m/s 749 mmHg 90%
11:00 -6°C° 0 mm 3 m/s 750 mmHg 90%
12:00 -5°C° 0 mm 3 m/s 750 mmHg 90%
13:00 -5°C° 0 mm 3 m/s 750 mmHg 89%
14:00 -5°C° 0 mm 4 m/s 750 mmHg 89%
15:00 -5°C° 0 mm 4 m/s 749 mmHg 89%
16:00 -6°C° 0.4 mm 5 m/s 749 mmHg 91%
17:00 -6°C° 0.4 mm 5 m/s 748 mmHg 94%
18:00 -6°C° 0.4 mm 6 m/s 748 mmHg 96%
19:00 -5°C° 1.9 mm 6 m/s 747 mmHg 96%
20:00 -4°C° 1.9 mm 7 m/s 746 mmHg 97%
21:00 -4°C° 1.9 mm 8 m/s 745 mmHg 97%
22:00 -4°C° 2.4 mm 8 m/s 744 mmHg 97%
23:00 -2°C° 2.4 mm 8 m/s 743 mmHg 98%

2 Februarie, Marţi

Timp Temperatura Precipitaţii Vânt Presiune Umiditate
00:00 -3°C° 2.4 mm 9 m/s 742 mmHg 98%
01:00 -1°C° 0.3 mm 8 m/s 741 mmHg 98%
02:00 -1°C° 0.3 mm 8 m/s 740 mmHg 99%
03:00 0°C° 0.3 mm 7 m/s 740 mmHg 99%
04:00 0°C° 0.6 mm 7 m/s 740 mmHg 99%
05:00 -1°C° 0.6 mm 7 m/s 740 mmHg 99%
06:00 -1°C° 0.6 mm 7 m/s 740 mmHg 98%
07:00 -1°C° 0 mm 7 m/s 740 mmHg 99%
08:00 -1°C° 0 mm 7 m/s 741 mmHg 99%
09:00 -1°C° 0 mm 6 m/s 742 mmHg 99%
10:00 -1°C° 0 mm 6 m/s 742 mmHg 99%
11:00 -1°C° 0 mm 6 m/s 743 mmHg 99%
12:00 -1°C° 0 mm 6 m/s 743 mmHg 100%
13:00 -1°C° 0 mm 6 m/s 744 mmHg 99%
14:00 -2°C° 0 mm 6 m/s 744 mmHg 98%
15:00 -2°C° 0 mm 6 m/s 745 mmHg 97%
16:00 -1°C° 0 mm 5 m/s 745 mmHg 95%
17:00 -2°C° 0 mm 5 m/s 746 mmHg 93%
18:00 -3°C° 0 mm 4 m/s 747 mmHg 91%
19:00 -3°C° 0 mm 4 m/s 747 mmHg 92%
20:00 -3°C° 0 mm 4 m/s 747 mmHg 92%
21:00 -4°C° 0 mm 3 m/s 748 mmHg 93%
22:00 -4°C° 0 mm 3 m/s 748 mmHg 93%
23:00 -5°C° 0 mm 3 m/s 748 mmHg 94%
Arată mai mult

Formular de consimțământ

Meteoprog și furnizorii noștri de servicii pot stoca și accesa date personale, precum cookies, identificatori de dispozitiv sau alte tehnologii similare pe dispozitivul dumneavoastră și procesa astfel de date pentru a personaliza conținutul și reclamele, dar și pentru a oferi caracteristici de social media și pentru a analiza traficul.

  • Stocarea și/sau accesarea informațiilor pe dispozitivul dumneavoastră

    Cookies, identificatori de dispozitiv sau alte informații pot fi stocate sau accesate pe dispozitiv în scopurile indicate mai sus.

  • Reclame și conținut personalizat, evaluarea reclamelor și a conținutului, informații despre audiențe și dezvoltarea produselor

    Reclamele și conținutul pot fi personalizate pe baza unui profil. Pot fi adăugate date suplimentare pentru a personaliza mai bine reclamele și conținutul. Performanța reclamelor și conținutului poate fi măsurată. Pot fi obținute informații despre utilizatorii care au văzut reclamele și conținutul. Aceste date pot fi utilizate pentru a dezvolta sau îmbunătăți experiența utilizatorilor, sistemele și software-ul.

Dând clic pe ‘Sunt de acord’, permiteți utilizarea cookie-urilor menționate, a identificatorilor de dispozitiv, balizelor web sau altor tehnologii similare. Setările pot fi modificate din browser-ul dispozitivului dumneavoastră.

În anumite scopuri, interesele legitime pot prima asupra consimțământului. Puteți citi mai multe informații în acest sens în Politica privind Confidențialitatea Datelor și Cookie.